Content
SEND FEEDBACK

Daily
Averages
Monthly
Summary
United States of America

TOMBSTONE, ARIZONA


Home > North America > United States > Arizona
Elevation: 4392 feet     Latitude: 31 43N     Longitude: 110 04W

WEATHER
 
SELECT A DAY
Number of Records: 126,477;   Date Range: 1/3/95 - 12/28/14
 
SHARE

PRINT THIS DATA

[ ← Previous Day ]
WEATHER ALMANAC - JANUARY 14, 2013
[ Next Day → ]
[ °C ]   °F
Weather ElementAverageHighLow
Temperature27.3 °F37.4 °F (1:55 pm)19.4 °F (5:55 am)
Dewpoint1.7 °F3.2 °F (1:55 am)-2.2 °F (11:55 pm)
Humidity34.7 %49 % (5:55 am)22 % (12:55 pm)
Barometer30.09 in30.18 in (11:55 pm)30.01 in (1:55 am)
Wind Speed9.9 mph16.1 mph (1:55 pm)
Wind Gust26.5 mph (2:55 pm)
Weather ElementAverage
Visibility10 mi
Wind DirectionWSW (261.3 °)

Weather ElementTotal
Precipitation---
Heating Degree Days36.6 (Base 65)
Averaged from 23 records on January 14, 2013
WEATHER CONDITIONS BREAKOUT
WIND DIRECTION BREAKOUT
WEATHER BY HOUR - JANUARY 14, 2013
[ °C ]   °F
Local TimeTemperatureDewpointHumidityBarometerVisibilityWind DirectionWind SpeedGust SpeedPrecipitationEventsConditions
1:55 AM26.6 °F3.2 °F37 %30.01 in10.0 miWest (270°)11.5 mphScattered Clouds
2:55 AM24.8 °F3.2 °F40 %30.02 in10.0 miWest (260°)8.1 mphScattered Clouds
3:55 AM24.8 °F3.2 °F40 %30.01 in10.0 miWest (280°)6.9 mphScattered Clouds
4:55 AM21.2 °F3.2 °F46 %30.02 in10.0 miWNW (290°)3.5 mphScattered Clouds
5:55 AM19.4 °F3.2 °F49 %30.04 in10.0 miVariable3.5 mphScattered Clouds
6:55 AM19.4 °F3.2 °F49 %30.07 in10.0 miWest (260°)10.4 mphPartly Cloudy
7:55 AM21.2 °F3.2 °F46 %30.09 in10.0 miWSW (250°)10.4 mphPartly Cloudy
8:55 AM28.4 °F3.2 °F34 %30.09 in10.0 miWSW (250°)8.1 mphPartly Cloudy
9:55 AM30.2 °F1.4 °F29 %30.10 in10.0 miNW (310°)5.8 mphPartly Cloudy
10:55 AM32.0 °F-0.4 °F25 %30.10 in10.0 miWest (280°)8.1 mphPartly Cloudy
11:55 AM33.8 °F-0.4 °F23 %30.08 in10.0 miWest (280°)11.5 mphPartly Cloudy
12:55 PM35.6 °F-0.4 °F22 %30.04 in10.0 miNW (310°)11.5 mph18.4 mphPartly Cloudy
1:55 PM37.4 °F3.2 °F24 %30.03 in10.0 miWest (280°)16.1 mph25.3 mphScattered Clouds
2:55 PM37.4 °F1.4 °F22 %30.04 in10.0 miWest (280°)12.7 mph26.5 mphPartly Cloudy
3:55 PM35.6 °F3.2 °F26 %30.06 in10.0 miWest (260°)8.1 mph19.6 mphPartly Cloudy
4:55 PM35.6 °F3.2 °F26 %30.07 in10.0 miWest (280°)13.8 mphPartly Cloudy
5:55 PM30.2 °F3.2 °F32 %30.12 in10.0 miWNW (290°)11.5 mphPartly Cloudy
6:55 PM26.6 °F3.2 °F37 %30.14 in10.0 miWest (260°)12.7 mphClear
7:55 PM24.8 °F-0.4 °F34 %30.17 in10.0 miWest (280°)12.7 mphClear
8:55 PM21.2 °F-0.4 °F39 %30.17 in10.0 miWest (260°)11.5 mphClear
9:55 PM21.2 °F-0.4 °F39 %30.16 in10.0 miWest (260°)11.5 mphClear
10:55 PM21.2 °F-0.4 °F39 %30.17 in10.0 miWest (270°)9.2 mphClear
11:55 PM19.4 °F-2.2 °F39 %30.18 in10.0 miWSW (250°)8.1 mphClear
Hourly data recorded from KFHU, located miles away from Tombstone, Arizona







STORIES FROM OUR PARTNERS